Tracking 25703 objects as of 2-Jul-2022
HD Live streaming from Space Station
objects crossing your sky now

FLOCK 4EP 7

Track FLOCK 4EP 7 now!
10-day predictions
FLOCK 4EP 7 is classified as:


NORAD ID: 46814
Int'l Code: 2020-077B
Perigee: 498.6 km
Apogee: 514.3 km
Inclination: 97.4 °
Period: 94.6 minutes
Semi major axis: 6877 km
RCS: Unknown
Launch date: October 28, 2020
Source: United States (US)
Launch site: Rocket Lab Launch Complex (RLLC)
aabbcc
Your satellite tracking list
Your tracking list is empty




NASA's NSSDC Master Catalog

Two Line Element Set (TLE):
1 46814U 20077B   22182.84912162  .00002937  00000-0  13091-3 0  9995
2 46814  97.4200 245.4750 0011470   9.3010 350.8436 15.22163096 92678
Source of the keplerian elements: AFSPC